Moron de la Frontera, Spain

11:49 AM CEST on June 26, 2017 (GMT +0200)
Moron Air Base

Weather History for LEMO - June, 2013

Change the Weather History Date:

Friday, June 14, 2013

  Actual Average Record
Temperature  
Mean Temperature 80 °F -  
Max Temperature 96 °F 89 °F 102 °F (2014)
Min Temperature 64 °F 62 °F 54 °F (2015)
Cooling Degree Days 15    
Growing Degree Days 30 (Base 50)    
Moisture  
Dew Point 60 °F    
Average Humidity 49    
Maximum Humidity 77    
Minimum Humidity 28    
Precipitation  
Precipitation 0.00 in - - ()
Sea Level Pressure  
Sea Level Pressure 29.96 in    
Wind  
Wind Speed 4 mph ()    
Max Wind Speed 10 mph    
Max Gust Speed -    
Averages and records for this station are not official NWS values.
T = Trace of Precipitation, MM = Missing Value Source: Averaged Metar Reports

Daily Weather History Graph

Daily Weather History Graph

Search for Another Location

Airport or City:

Trip Planner

Search our weather history database for the weather conditions in past years. The results will help you decide how hot, cold, wet, or windy it might be!

Date:

Astronomy

Jun. 14, 2013 Rise Set
Actual Time 7:01 AM CEST 9:43 PM CEST
Civil Twilight 6:30 AM CEST 10:14 PM CEST
Nautical Twilight 5:52 AM CEST 10:53 PM CEST
Astronomical Twilight 5:09 AM CEST 11:36 PM CEST
Moon 12:16 PM CEST (6/14) 12:48 AM CEST (6/14)
Length of Visible Light 15h 43m
Length of Day
14h 42m
Waxing Crescent, 28% of the Moon is Illuminated
Jun 14
Waxing Crescent
Jun 16
First Quarter
Jun 23
Full
Jun 30
Last Quarter
Jul 8
New

Hourly Weather History & Observations

Time (CEST) Temp. Heat Index Dew Point Humidity Pressure Visibility Wind Dir Wind Speed Gust Speed Precip Events Conditions
12:00 AM 77.0 °F - 60.8 °F 57% 29.98 in - SSW 5.8 mph - N/A   Clear
1:00 AM 75.2 °F - 60.8 °F 61% 30.01 in - SSW 5.8 mph - N/A   Clear
2:00 AM 73.4 °F - 59.0 °F 61% 29.98 in - South 8.1 mph - N/A   Clear
3:00 AM 71.6 °F - 59.0 °F 64% 29.98 in - South 4.6 mph - N/A   Clear
5:00 AM 66.2 °F - 57.2 °F 73% 29.98 in - Variable 2.3 mph - N/A   Clear
6:00 AM 66.2 °F - 57.2 °F 73% 29.98 in - Calm Calm - N/A   Clear
7:00 AM 64.4 °F - 57.2 °F 77% 29.98 in - Calm Calm - N/A   Clear
8:00 AM 66.2 °F - 57.2 °F 73% 29.98 in - Calm Calm - N/A   Clear
9:00 AM 75.2 °F - 60.8 °F 61% 29.98 in - Calm Calm - N/A   Clear
10:00 AM 82.4 °F 82.5 °F 59.0 °F 45% 29.98 in - Calm Calm - N/A   Clear
11:00 AM 86.0 °F 84.9 °F 57.2 °F 37% 29.98 in - Calm Calm - N/A   Clear
12:00 PM 87.8 °F 87.1 °F 59.0 °F 38% 29.98 in - Calm Calm - N/A   Clear
1:00 PM 91.4 °F 91.4 °F 60.8 °F 36% 29.98 in - Calm Calm - N/A   Clear
2:00 PM 93.2 °F 93.3 °F 60.8 °F 34% 29.98 in - Variable 2.3 mph - N/A   Clear
3:00 PM 95.0 °F 93.7 °F 57.2 °F 28% 29.95 in - West 6.9 mph - N/A   Clear
4:00 PM 96.8 °F 97.1 °F 60.8 °F 30% 29.95 in - WSW 4.6 mph - N/A   Clear
5:00 PM 96.8 °F 98.0 °F 62.6 °F 32% 29.92 in - Variable 3.5 mph - N/A   Clear
6:00 PM 96.8 °F 97.1 °F 60.8 °F 30% 29.92 in - West 8.1 mph - N/A   Clear
7:00 PM 95.0 °F 96.0 °F 62.6 °F 34% 29.92 in - West 8.1 mph - N/A   Clear
8:00 PM 93.2 °F 94.1 °F 62.6 °F 36% 29.92 in - West 6.9 mph - N/A   Clear
9:00 PM 89.6 °F 90.1 °F 62.6 °F 40% 29.92 in - West 10.4 mph - N/A   Clear
10:00 PM 82.4 °F 83.4 °F 62.6 °F 51% 29.95 in - SSW 5.8 mph - N/A   Clear
11:00 PM 80.6 °F 81.5 °F 60.8 °F 51% 29.98 in - SW 6.9 mph - N/A   Clear